This is the latest recevied weather packets stored in our database for station/object AD8BW. If no packets are shown the sender has not sent any weather packets the latest 10 day(s).
| Time | Temp. | Humidity | Pressure | Rain* | Wind** | Luminosity | Snow |
|---|---|---|---|---|---|---|---|
| 1777915414 | 22.78° C | 37% | 1000.9 hPa | 0 mm | - | 195 W/m² | - |
| 1777914812 | 22.22° C | 36% | 1001.2 hPa | 0 mm | - | 153 W/m² | - |
| 1777914216 | 22.22° C | 36% | 1001.3 hPa | 0 mm | - | 211 W/m² | - |
| 1777913610 | 21.67° C | 38% | 1001.5 hPa | 0 mm | - | 113 W/m² | - |
| 1777913011 | 21.67° C | 38% | 1001.6 hPa | 0 mm | - | 454 W/m² | - |
| 1777912410 | 21.11° C | 42% | 1001.9 hPa | 0 mm | - | 86 W/m² | - |
| 1777911812 | 21.11° C | 45% | 1001.9 hPa | 0 mm | - | 148 W/m² | - |
| 1777911213 | 20.56° C | 43% | 1002.3 hPa | 0 mm | - | 100 W/m² | - |
| 1777910620 | 20° C | 48% | 1002.3 hPa | 0 mm | - | 276 W/m² | - |
| 1777910011 | 20° C | 52% | 1002.6 hPa | 0 mm | - | 186 W/m² | - |
| 1777909412 | 19.44° C | 53% | 1002.7 hPa | 0 mm | - | 130 W/m² | - |
| 1777908811 | 18.89° C | 55% | 1002.7 hPa | 0 mm | - | 487 W/m² | - |
| 1777908213 | 17.78° C | 57% | 1002.7 hPa | 0 mm | - | 218 W/m² | - |
| 1777907611 | 17.78° C | 57% | 1002.7 hPa | 0 mm | - | 383 W/m² | - |
| 1777907012 | 17.22° C | 57% | 1002.8 hPa | 0 mm | - | 77 W/m² | - |
| 1777906411 | 17.22° C | 59% | 1002.8 hPa | 0 mm | - | 258 W/m² | - |
| 1777905810 | 16.67° C | 60% | 1002.9 hPa | 0 mm | - | 113 W/m² | - |
| 1777905212 | 16.11° C | 61% | 1002.8 hPa | 0 mm | - | 585 W/m² | - |
| 1777904610 | 16.11° C | 61% | 1003 hPa | 0 mm | - | 612 W/m² | - |
| 1777904012 | 15.56° C | 63% | 1003 hPa | 0 mm | - | 359 W/m² | - |
| 1777903408 | 15° C | 64% | 1003.1 hPa | 0 mm | - | 448 W/m² | - |
| 1777902803 | 14.44° C | 66% | 1003.2 hPa | 0 mm | - | 260 W/m² | - |
| 1777902202 | 14.44° C | 66% | 1003.3 hPa | 0 mm | - | 100 W/m² | - |
| 1777901604 | 13.89° C | 68% | 1003.4 hPa | 0 mm | - | 81 W/m² | - |
| 1777901005 | 13.33° C | 69% | 1003.4 hPa | 0 mm | - | 102 W/m² | - |
* Rain latest hour (hover to see other rain measurements)
** Current wind speed in m/s (hover to see current wind gust speed)